This demonstration page uses our WeatherBlox Daily Observations layout. Learn more.

41.55636, -103.73856

Hourly Observations for December 15, 2015

Temp ( °F °C ) Dew Point ( °F °C ) Humidity (%) Winds ( mph kmh ) Pressure ( in mb ) Visibility ( mi km ) Precip ( " mm )
12:04 am 00:04 Cloudy 25 -4 21 -6 86 86 NE 14 22 29.8 1009 10 16.09344 0 0
12:23 am 00:23 Cloudy 25 -4 21 -6 86 86 NE 15 24 29.8 1009 10 16.09344 0 0
12:30 am 00:30 Cloudy 25 -4 21 -6 86 86 NE 14 22 29.8 1009 10 16.09344 0 0
12:53 am 00:53 Cloudy 25 -4 21 -6 86 86 NE 15 24 29.8 1009 10 16.09344 0 0
1:53 am 01:53 Cloudy 21 -6 19 -7 93 93 NE 17 28 29.83 1010 10 16.09344 0 0
2:17 am 02:17 Cloudy with Light Snow 21 -6 19 -7 93 93 NE 15 24 29.83 1010 1.75 2.816352 0.01 0.254
2:29 am 02:29 Cloudy with Light Snow 21 -6 18 -8 86 86 NE 15 24 29.83 1010 3 4.828032 0.01 0.254
2:53 am 02:53 Cloudy 21 -6 18 -8 86 86 NE 18 30 29.83 1010 10 16.09344 0.01 0.254
3:53 am 03:53 Cloudy 21 -6 18 -8 86 86 NE 22 35 29.8 1009 10 16.09344 0 0
4:30 am 04:30 Cloudy 23 -5 18 -8 80 80 NNE 23 37 29.74 1007 10 16.09344 0 0
4:53 am 04:53 Cloudy 23 -5 19 -7 86 86 NE 22 35 29.77 1008 10 16.09344 0 0
5:33 am 05:33 Cloudy 23 -5 19 -7 86 86 NNE 22 35 29.77 1008 10 16.09344 0 0
5:44 am 05:44 Cloudy 25 -4 19 -7 80 80 NE 20 31 29.77 1008 10 16.09344 0 0
5:53 am 05:53 Cloudy 25 -4 19 -7 80 80 NNE 22 35 29.77 1008 10 16.09344 0 0
6:24 am 06:24 Cloudy with Light Snow 25 -4 19 -7 80 80 NNE 16 26 29.77 1008 1.75 2.816352 0 0
6:36 am 06:36 Mostly Cloudy with Snow 23 -5 19 -7 86 86 N 21 33 29.77 1008 0.5 0.804672 0.001 0.001
6:53 am 06:53 Mostly Cloudy with Scattered Snow Showers 21 -6 19 -7 93 93 NNE 13 20 29.83 1010 0.75 1.207008 0.02 0.508
7:00 am 07:00 Cloudy with Light Snow 21 -6 19 -7 93 93 NNE 10 17 29.83 1010 2 3.218688 0 0
7:18 am 07:18 Cloudy with Light Snow 23 -5 19 -7 86 86 NNE 15 24 29.83 1010 1.25 2.01168 0 0
7:53 am 07:53 Cloudy with Light Snow 23 -5 18 -8 80 80 NNE 17 28 29.77 1008 1 1.609344 0.02 0.508
8:20 am 08:20 Cloudy with Light Snow 21 -6 18 -8 86 86 N 14 22 29.83 1010 1.25 2.01168 0 0
8:53 am 08:53 Cloudy with Light Snow 21 -6 18 -8 86 86 N 17 28 29.83 1010 1.5 2.414016 0.001 0.001
9:14 am 09:14 Cloudy with Light Snow 21 -6 18 -8 86 86 NNE 17 28 29.83 1010 2.5 4.02336 0 0
9:25 am 09:25 Cloudy with Light Snow 21 -6 18 -8 86 86 N 16 26 29.8 1009 1.25 2.01168 0.001 0.001
9:34 am 09:34 Windy with Snow Likely 21 -6 18 -8 86 86 NNE 20 31 29.8 1009 1 1.609344 0 0
9:44 am 09:44 Cloudy with Light Snow 21 -6 18 -8 86 86 NNE 17 28 29.83 1010 0.75 1.207008 0 0
9:53 am 09:53 Cloudy with Light Snow 21 -6 18 -8 86 86 N 16 26 29.83 1010 1 1.609344 0.001 0.001
10:00 am 10:00 Mostly Cloudy with Scattered Snow Showers 21 -6 18 -8 86 86 N 16 26 29.83 1010 0.75 1.207008 0 0
10:44 am 10:44 Mostly Cloudy with Snow 21 -6 18 -8 86 86 N 9 15 29.85 1011 0.25 0.402336 0 0
10:53 am 10:53 Mostly Cloudy with Heavy Snow 21 -6 18 -8 86 86 N 6 9 29.85 1011 0.25 0.402336 0.03 0.762
11:42 am 11:42 Mostly Cloudy with Heavy Snow 21 -6 18 -8 86 86 N 13 20 29.83 1010 0.25 0.402336 0 0
11:53 am 11:53 Mostly Cloudy with Heavy Snow 21 -6 18 -8 86 86 NNE 14 22 29.83 1010 0 0 0.09 2.286
12:43 pm 12:43 Mostly Cloudy with Freezing Fog 21 -6 18 -8 86 86 N 12 19 29.83 1010 0.25 0.402336 0.09 2.286
12:53 pm 12:53 Mostly Cloudy with Snow 21 -6 18 -8 86 86 N 14 22 29.83 1010 0.25 0.402336 0.12 3.048
1:53 pm 13:53 Mostly Cloudy with Freezing Fog 19 -7 16 -9 86 86 N 21 33 29.85 1011 0.25 0.402336 0.04 1.016
2:37 pm 14:37 Mostly Cloudy with Freezing Fog 19 -7 16 -9 86 86 N 15 24 29.85 1011 0.5 0.804672 0.01 0.254
2:53 pm 14:53 Mostly Cloudy with Freezing Fog 19 -7 16 -9 86 86 N 18 30 29.85 1011 0.25 0.402336 0.01 0.254
3:16 pm 15:16 Mostly Cloudy with Freezing Fog 19 -7 16 -9 86 86 N 17 28 29.85 1011 0.5 0.804672 0 0
3:27 pm 15:27 Mostly Cloudy with Freezing Fog 19 -7 16 -9 86 86 N 17 28 29.85 1011 0.5 0.804672 0 0
3:53 pm 15:53 Mostly Cloudy with Mist and Fog 19 -7 16 -9 86 86 N 14 22 29.85 1011 0.75 1.207008 0 0
4:20 pm 16:20 Cloudy with Mist and Fog 19 -7 16 -9 86 86 NNW 13 20 29.88 1012 1 1.609344 0 0
4:34 pm 16:34 Cloudy with Mist and Fog 19 -7 16 -9 86 86 NW 10 17 29.88 1012 2 3.218688 0 0
4:53 pm 16:53 Cloudy with Mist and Fog 19 -7 16 -9 86 86 NW 10 17 29.88 1012 2 3.218688 0 0
5:34 pm 17:34 Cloudy with Mist and Fog 19 -7 18 -8 93 93 NW 12 19 29.88 1012 1.5 2.414016 0 0
5:53 pm 17:53 Mostly Cloudy with Mist and Fog 19 -7 18 -8 93 93 NW 12 19 29.88 1012 1 1.609344 0 0
6:53 pm 18:53 Cloudy with Mist and Fog 21 -6 18 -8 86 86 NW 12 19 29.85 1011 1.5 2.414016 0 0
7:53 pm 19:53 Cloudy with Light Snow 21 -6 18 -8 86 86 NW 8 13 29.85 1011 1.75 2.816352 0.02 0.508
8:01 pm 20:01 Cloudy with Light Snow 21 -6 19 -7 93 93 NNW 14 22 29.85 1011 2.5 4.02336 0.001 0.001
8:10 pm 20:10 Cloudy with Light Snow 25 -4 19 -7 80 80 NNW 17 28 29.83 1010 3 4.828032 0 0
8:53 pm 20:53 Windy with Snow Likely 25 -4 19 -7 80 80 NW 25 41 29.85 1011 2 3.218688 0.001 0.001
9:44 pm 21:44 Windy with Snow Likely 25 -4 19 -7 80 80 NW 23 37 29.85 1011 3 4.828032 0 0
9:53 pm 21:53 Windy with Snow Likely 23 -5 19 -7 86 86 NW 23 37 29.88 1012 2.5 4.02336 0.001 0.001
10:44 pm 22:44 Windy with Snow Likely 23 -5 19 -7 86 86 WNW 20 31 29.88 1012 3 4.828032 0 0
10:53 pm 22:53 Windy with Snow Likely 23 -5 19 -7 86 86 WNW 20 31 29.88 1012 2.5 4.02336 0.001 0.001
11:16 pm 23:16 Windy with Snow Likely 23 -5 19 -7 86 86 WNW 21 33 29.88 1012 1.75 2.816352 0 0
11:24 pm 23:24 Windy with Snow Likely 23 -5 19 -7 86 86 NW 22 35 29.88 1012 2.5 4.02336 0 0
11:35 pm 23:35 Windy with Snow Likely 25 -4 19 -7 80 80 NW 20 31 29.85 1011 3 4.828032 0.001 0.001
11:53 pm 23:53 Windy with Snow Likely 25 -4 19 -7 80 80 NW 22 35 29.85 1011 2.5 4.02336 0.001 0.001

Powered by AerisWeather